This demonstration page uses our WeatherBlox Daily Observations layout. Learn more.

Left ArrowRight Arrow

38.20091, -84.87328

Hourly Observations for July 3, 2020

Temp ( °F °C ) Dew Point ( °F °C ) Humidity (%) Winds ( mph kmh ) Pressure ( in mb ) Visibility ( mi km ) Precip ( " mm )
12:53 am 00:53 Clear 70 21.1 65 18.3 84 84 Calm 29.97 1015 10 16 0.00 0.00
1:53 am 01:53 Clear 68 20 64 17.8 87 87 NNW 3 6 29.98 1015 10 16 0.00 0.00
2:53 am 02:53 Clear 67 19.4 64 17.8 91 91 Calm 29.98 1015 10 16 0.00 0.00
3:53 am 03:53 Clear 66 18.9 64 17.8 93 93 Calm 29.98 1015 10 16 0.00 0.00
4:53 am 04:53 Clear 65 18.3 63 17.2 93 93 NNW 3 6 29.99 1016 10 16 0.00 0.00
5:53 am 05:53 Clear 65 18.3 62 16.7 90 90 Calm 29.99 1016 10 16 0.00 0.00
6:53 am 06:53 Sunny 66 18.9 63 17.2 90 90 Calm 29.99 1016 10 16 0.00 0.00
7:53 am 07:53 Sunny 71 21.7 66 18.9 84 84 Calm 30.00 1016 10 16 0.00 0.00
8:53 am 08:53 Sunny 77 25 67 19.4 71 71 VRB 3 6 30.01 1016 10 16 0.00 0.00
9:53 am 09:53 Sunny 82 27.8 66 18.9 58 58 VRB 3 6 30.01 1016 10 16 0.00 0.00
10:53 am 10:53 Sunny 86 30 65 18.3 49 49 ENE 6 9 30.02 1017 10 16 0.00 0.00
11:53 am 11:53 Partly Cloudy 87 30.6 65 18.3 48 48 VRB 3 6 30.01 1016 10 16 0.00 0.00
12:53 pm 12:53 Mostly Cloudy 89 31.7 65 18.3 45 45 NE 7 11 30.00 1016 10 16 0.00 0.00
1:53 pm 13:53 Mostly Cloudy 88 31.1 63 17.2 43 43 ENE 7 11 29.99 1016 10 16 0.00 0.00
2:53 pm 14:53 Mostly Sunny 91 32.8 63 17.2 39 39 undefined N/A 29.98 1015 10 16 0.00 0.00
3:53 pm 15:53 Partly Cloudy 89 31.7 62 16.7 41 41 VRB 7 11 29.96 1015 10 16 0.00 0.00
4:53 pm 16:53 Mostly Sunny 91 32.8 63 17.2 39 39 NE 7 11 29.95 1014 10 16 0.00 0.00
5:53 pm 17:53 Mostly Sunny 89 31.7 63 17.2 42 42 ENE 7 11 29.94 1014 10 16 0.00 0.00
6:53 pm 18:53 Sunny 90 32.2 63 17.2 41 41 NNE 8 13 29.92 1013 10 16 0.00 0.00
7:53 pm 19:53 Sunny 88 31.1 65 18.3 46 46 NNE 5 7 29.91 1013 10 16 0.00 0.00
8:53 pm 20:53 Sunny 86 30 66 18.9 51 51 N 3 6 29.93 1014 10 16 0.00 0.00
9:53 pm 21:53 Clear 77 25 68 20 74 74 Calm 29.96 1014 10 16 0.00 0.00
10:53 pm 22:53 Mostly Clear 76 24.4 68 20 77 77 NNW 3 6 29.97 1015 10 16 0.00 0.00
11:53 pm 23:53 Clear 74 23.3 68 20 82 82 Calm 29.97 1015 10 16 0.00 0.00

Powered by AerisWeather